Regional Weather Roundup
Issued by NWS Charleston, SC

Current Version | Previous Version | Text Only | Print | Product List | Glossary Off
Versions: 1 2 3 4 5 6 7 8 9 10 11 12 13 14 15 16 17 18 19 20 21 22 23 24 25 26 27 28 29 30 31 32 33 34 35 36 37 38 39 40 41 42 43 44 45 46 47 48 49 50

688
ASUS42 KCHS 230428
RWRCHS

REGIONAL WEATHER ROUNDUP
NATIONAL WEATHER SERVICE CHARLESTON SC
1200 AM EDT SAT JUL 23 2016

NOTE: "FAIR" INDICATES FEW OR NO CLOUDS BELOW 12,000 FEET WITH NO
SIGNIFICANT WEATHER AND/OR OBSTRUCTIONS TO VISIBILITY.

NOT ALL STATIONS ARE QUALITY CONTROLLED. USE DATA WITH CAUTION...
ESPECIALLY DEWPOINT OBSERVATIONS.

SCZ027-030-031-034>040-042>050-230500-
...SOUTHEAST SOUTH CAROLINA...

CITY           SKY/WX    TMP DP  RH WIND       PRES   REMARKS
N CHARLESTON   PTCLDY    80  74  81 SW6       30.04S
WATERFRONT PRK   N/A     84  75  74 S5        30.02S HX  92
MOUNT PLEASANT FAIR      77  73  88 CALM      30.04F
JOHNS ISLAND   FAIR      82  75  78 S7        30.04S
PINOPOLIS        N/A     81  75  83 CALM      29.97S
MONCKS CORNER  FAIR      73  72  94 CALM      30.04S
SUMMERVILLE    FAIR      77  77 100 CALM      30.05S
BEAUFORT MCAS  CLEAR     83  76  79 S5        30.04S HX  91
BEAUFORT ARPT  FAIR      82  75  78 S6        30.04S
HILTON HEAD IS CLEAR     84  75  74 S7        30.05S HX  92
WALTERBORO     PTCLDY    81  79  94 CALM      30.05F
ALLENDALE      FAIR      81  73  78 CALM      30.04S

...SOUTHERN MIDLANDS AND PEE DEE...

CITY           SKY/WX    TMP DP  RH WIND       PRES   REMARKS
GEORGETOWN     FAIR      75  72  88 CALM      30.05S
KINGSTREE      FAIR      77  72  83 SE5       30.03F
ORANGEBURG     PTCLDY    80  76  87 S7        30.04S
BARNWELL       NOT AVBL
AIKEN          FAIR      79  72  78 SW5       30.08S
MANNING        FAIR      81  73  78 S6        30.03F
COLUMBIA       PTCLDY    84  72  67 SW6       30.01S
SUMTER         CLEAR     80  75  84 S7        30.00S
FLORENCE       PTCLDY    80  74  81 S7        30.02F
MYRTLE BEACH   CLEAR     82  66  57 S9G16     30.05F
N MYRTLE BEACH CLEAR     84  72  67 SW12      30.03F

$$

GAZ063-065-086>088-099>101-113>116-118-119-134>141-150-230500-
...SOUTHEAST GEORGIA...

CITY           SKY/WX    TMP DP  RH WIND       PRES   REMARKS
SAVANNAH ARPT  CLEAR     80  74  81 S3        30.05S
HUNTER AAF     CLEAR     82  78  89 S3        30.03R HX  91
FORT STEWART   PTCLDY    80  74  82 S1        30.04R
STATESBORO     MOCLDY    80  76  87 CALM      30.05S
SYLVANIA       NOT AVBL
CLAXTON        FAIR      79  74  83 SE3       30.05S

...CSRA...CENTRAL AND FAR SOUTHEAST GEORGIA...

CITY           SKY/WX    TMP DP  RH WIND       PRES   REMARKS
THOMSON        CLEAR     80  75  87 CALM      30.09S
AUGUSTA-BUSH   CLEAR     77  72  84 CALM      30.03R
AUGUSTA-DANIEL PTCLDY    84  71  65 SW3       30.05R
SWAINSBORO     FAIR      79  73  83 S3        30.06S
VIDALIA        PTCLDY    81  70  69 S8        30.06S
EASTMAN        MOCLDY    80  74  81 SE3       30.07S
HAZLEHURST     FAIR      80  74  84 CALM      30.05S
ALMA           CLOUDY    78  73  84 S5        30.06F
WAYCROSS       MOCLDY    82  75  79 NE5       30.07S
JESUP          FAIR      79  73  83 CALM      30.06F
BAXLEY         FAIR      73  73 100 SW3       30.05F
BRUNSWICK      PTCLDY    82  79  89 SW9       30.06S HX  93
SAINT SIMONS   PTCLDY    84  75  74 SW9       30.05S HX  92

$$

SCZ027-028-034-036>038-045-046-048>050-GAZ119-141-230500-
...LAKE AND SUPPLEMENTAL COASTAL OBSERVATIONS...

STATION/POSITION TIME  TEMP    WIND        PRES    WAVE   SWELL
                       AIR SEA DIR/SP/G            HT/PER HT/PER/DIR
                 (UTC) (F)     (DEG/KT/KT) (MB)    (FT/S) (FT/S/D)
WINYAH BAY       0345   83     190/  6     1017.0S
LAKE MURRAY      0300   87     200/  8/ 10 1015.9R
ACE BASIN NERRS  0300   84        CALM     1017.0S
FORT PULASKI     0400   85 88  170/  5/  9   N/A
SAPELO ISLAND    0400   85     180/ 10     1017.0F

$$

ANZ835-935-AMZ111-154-330-350-352-354-370-450-454-472-230500-
...C-MAN AND BUOY OBSERVATIONS...

STATION/POSITION TIME  TEMP    WIND        PRES    WAVE   SWELL
                       AIR SEA DIR/SP/G            HT/PER HT/PER/DIR
                 (UTC) (F)     (DEG/KT/KT) (MB)    (FT/S) (FT/S/D)
BUOY 41004       0350   84 86  180/ 10/ 12 1017.0F   3/ 8   3/110/ 8
BUOY 41008       0350   85 86  170/ 12/ 14 1017.2F   2/ 9   2/ 90/ 9
FOLLY BEACH CMAN 0400   85     180/ 12/ 14 1017.4F
CAPERS NEARSHORE 0308   85 85  200/ 12/ 16 1017.2S
FRIPP NEARSHORE  0308   85 87  190/ 12/ 16 1016.7F


STATION/POSITION TIME  TEMP    WIND        PRES    WAVE   SWELL
                       AIR SEA DIR/SP/G            HT/PER HT/PER/DIR
                 (UTC) (F)     (DEG/KT/KT) (MB)    (FT/S) (FT/S/D)
5E ST. MARYS GA  0401      86                N/A     3/10
FRYING PAN BUOY  0400   84 86  220/  8/ 10 1016.8F
BUOY 41025       0350   83 87  220/ 12/ 14 1016.8R   2/ 8   2/120/ 8
CAPE LOOKOUT NC  0400   82     220/  7/  8 1016.6S
BUOY 41002       0350   83 86  140/  4/  6 1017.3F   3/ 9   3/100/ 9
BUOY 41010       0320   84 87   CALM  /  2 1017.4F
ST AUGUSTINE FL  0400   83 88  200/  3/  4 1018.2F


$$




USA.gov is the U.S. government's official web portal to all federal, state and local government web resources and services.